Time,TemperatureF,DewpointF,PressureIn,WindDirection,WindDirectionDegrees,WindSpeedMPH,WindSpeedGustMPH,Humidity,HourlyPrecipIn,Conditions,Clouds,dailyrainin,SoftwareType,DateUTC
2013-02-25 00:02:00,30.0,25.0,-100.00,SE,135,4.0,6.0,80,0.00,,,-99.99,,2013-02-25 06:02:00,
2013-02-25 00:11:00,31.0,26.0,-100.00,South,175,3.0,9.0,80,0.00,,,-99.99,,2013-02-25 06:11:00,
2013-02-25 00:21:00,31.0,26.0,-100.00,South,175,3.0,9.0,80,0.00,,,-99.99,,2013-02-25 06:21:00,
2013-02-25 00:31:00,31.0,25.0,-100.00,ENE,65,0.0,1.0,80,0.00,,,-99.99,,2013-02-25 06:31:00,
2013-02-25 00:41:00,31.0,25.0,-100.00,ENE,65,0.0,1.0,80,0.00,,,-99.99,,2013-02-25 06:41:00,
2013-02-25 00:51:00,31.0,25.0,-100.00,East,80,2.0,2.0,80,0.00,,,-99.99,,2013-02-25 06:51:00,
2013-02-25 01:01:00,31.0,25.0,-100.00,East,80,2.0,2.0,80,0.00,,,-99.99,,2013-02-25 07:01:00,
2013-02-25 01:11:00,30.0,25.0,-100.00,ENE,60,3.0,3.0,80,0.00,,,-99.99,,2013-02-25 07:11:00,
2013-02-25 01:21:00,30.0,25.0,-100.00,ENE,60,3.0,3.0,80,0.00,,,-99.99,,2013-02-25 07:21:00,
2013-02-25 01:31:00,30.0,25.0,-100.00,NNE,25,4.0,4.0,81,0.00,,,-99.99,,2013-02-25 07:31:00,
2013-02-25 01:41:00,30.0,25.0,-100.00,NNE,25,4.0,4.0,81,0.00,,,-99.99,,2013-02-25 07:41:00,
2013-02-25 01:51:00,30.0,25.0,-100.00,North,0,4.0,5.0,81,0.00,,,-99.99,,2013-02-25 07:51:00,
2013-02-25 02:01:00,30.0,25.0,-100.00,North,0,4.0,5.0,81,0.00,,,-99.99,,2013-02-25 08:01:00,
2013-02-25 02:11:00,30.0,26.0,-100.00,North,10,0.0,5.0,82,0.00,,,-99.99,,2013-02-25 08:11:00,
2013-02-25 02:21:00,30.0,25.0,-100.00,NE,35,0.0,2.0,82,0.00,,,-99.99,,2013-02-25 08:21:00,
2013-02-25 02:32:00,29.0,25.0,-100.00,North,5,3.0,4.0,82,0.00,,,-99.99,,2013-02-25 08:32:00,
2013-02-25 02:41:00,29.0,25.0,-100.00,North,5,3.0,4.0,82,0.00,,,-99.99,,2013-02-25 08:41:00,
2013-02-25 02:52:00,29.0,25.0,-100.00,North,10,3.0,4.0,83,0.00,,,-99.99,,2013-02-25 08:52:00,
2013-02-25 03:01:00,29.0,25.0,-100.00,North,10,3.0,4.0,83,0.00,,,-99.99,,2013-02-25 09:01:00,
2013-02-25 03:12:00,29.0,25.0,-100.00,North,10,3.0,4.0,83,0.00,,,-99.99,,2013-02-25 09:12:00,
2013-02-25 03:21:00,29.0,25.0,-100.00,North,5,4.0,4.0,84,0.00,,,-99.99,,2013-02-25 09:21:00,
2013-02-25 03:32:00,29.0,25.0,-100.00,North,0,4.0,6.0,84,0.00,,,-99.99,,2013-02-25 09:32:00,
2013-02-25 03:41:00,29.0,25.0,-100.00,North,0,4.0,6.0,84,0.00,,,-99.99,,2013-02-25 09:41:00,
2013-02-25 03:52:00,29.0,25.0,-100.00,NNE,20,4.0,6.0,84,0.00,,,-99.99,,2013-02-25 09:52:00,
2013-02-25 04:01:00,29.0,25.0,-100.00,NNE,20,4.0,6.0,84,0.00,,,-99.99,,2013-02-25 10:01:00,
2013-02-25 04:11:00,29.0,25.0,-100.00,NE,50,2.0,6.0,84,0.00,,,-99.99,,2013-02-25 10:11:00,
2013-02-25 04:21:00,29.0,25.0,-100.00,NNE,25,4.0,4.0,84,0.00,,,-99.99,,2013-02-25 10:21:00,
2013-02-25 04:32:00,29.0,25.0,-100.00,ENE,60,4.0,4.0,84,0.00,,,-99.99,,2013-02-25 10:32:00,
2013-02-25 04:41:00,29.0,25.0,-100.00,ENE,60,4.0,4.0,84,0.00,,,-99.99,,2013-02-25 10:41:00,
2013-02-25 04:52:00,29.0,25.0,-100.00,ENE,60,4.0,5.0,85,0.00,,,-99.99,,2013-02-25 10:52:00,
2013-02-25 05:01:00,29.0,25.0,-100.00,ENE,60,4.0,5.0,85,0.00,,,-99.99,,2013-02-25 11:01:00,
2013-02-25 05:11:00,29.0,25.0,-100.00,ENE,65,5.0,6.0,85,0.00,,,-99.99,,2013-02-25 11:11:00,
2013-02-25 05:21:00,29.0,25.0,-100.00,ENE,65,5.0,6.0,85,0.00,,,-99.99,,2013-02-25 11:21:00,
2013-02-25 05:32:00,29.0,25.0,-100.00,NE,50,5.0,7.0,85,0.00,,,-99.99,,2013-02-25 11:32:00,
2013-02-25 05:42:00,29.0,25.0,-100.00,NE,50,5.0,7.0,85,0.00,,,-99.99,,2013-02-25 11:42:00,
2013-02-25 05:52:00,28.0,24.0,-100.00,NE,40,4.0,6.0,85,0.00,,,-99.99,,2013-02-25 11:52:00,
2013-02-25 06:02:00,28.0,24.0,-100.00,NE,40,4.0,6.0,85,0.00,,,-99.99,,2013-02-25 12:02:00,
2013-02-25 06:11:00,28.0,24.0,-100.00,NNE,25,5.0,6.0,85,0.00,,,-99.99,,2013-02-25 12:11:00,
2013-02-25 06:21:00,28.0,24.0,-100.00,North,5,4.0,6.0,85,0.00,,,-99.99,,2013-02-25 12:21:00,
2013-02-25 06:32:00,27.0,24.0,-100.00,NNE,15,4.0,4.0,85,0.00,,,-99.99,,2013-02-25 12:32:00,
2013-02-25 06:42:00,27.0,24.0,-100.00,NNE,15,4.0,4.0,85,0.00,,,-99.99,,2013-02-25 12:42:00,
2013-02-25 06:53:00,27.0,23.0,-100.00,ENE,65,1.0,4.0,85,0.00,,,-99.99,,2013-02-25 12:53:00,
2013-02-25 07:02:00,27.0,23.0,-100.00,ENE,65,1.0,4.0,85,0.00,,,-99.99,,2013-02-25 13:02:00,
2013-02-25 07:12:00,27.0,23.0,-100.00,NNW,340,2.0,4.0,85,0.00,,,-99.99,,2013-02-25 13:12:00,
2013-02-25 07:22:00,27.0,23.0,-100.00,NNW,340,2.0,4.0,85,0.00,,,-99.99,,2013-02-25 13:22:00,
2013-02-25 07:32:00,28.0,25.0,-100.00,North,355,3.0,4.0,85,0.00,,,-99.99,,2013-02-25 13:32:00,
2013-02-25 07:42:00,28.0,25.0,-100.00,North,355,3.0,4.0,85,0.00,,,-99.99,,2013-02-25 13:42:00,
2013-02-25 07:52:00,28.0,24.0,-100.00,NE,45,4.0,4.0,84,0.00,,,-99.99,,2013-02-25 13:52:00,
2013-02-25 08:03:00,28.0,24.0,-100.00,NE,45,4.0,4.0,84,0.00,,,-99.99,,2013-02-25 14:03:00,
2013-02-25 08:17:00,28.0,24.0,-100.00,NE,45,4.0,4.0,84,0.00,,,-99.99,,2013-02-25 14:17:00,
2013-02-25 08:22:00,28.0,24.0,-100.00,NE,55,6.0,7.0,84,0.00,,,-99.99,,2013-02-25 14:22:00,
2013-02-25 08:32:00,28.0,24.0,-100.00,NE,45,6.0,7.0,84,0.00,,,-99.99,,2013-02-25 14:32:00,
2013-02-25 08:42:00,28.0,24.0,-100.00,NE,45,6.0,7.0,84,0.00,,,-99.99,,2013-02-25 14:42:00,
2013-02-25 08:52:00,28.0,24.0,-100.00,NE,45,4.0,5.0,83,0.00,,,-99.99,,2013-02-25 14:52:00,
2013-02-25 09:02:00,28.0,24.0,-100.00,NE,45,4.0,5.0,83,0.00,,,-99.99,,2013-02-25 15:02:00,
2013-02-25 09:11:00,29.0,24.0,-100.00,NE,35,4.0,5.0,83,0.00,,,-99.99,,2013-02-25 15:11:00,
2013-02-25 09:21:00,29.0,24.0,-100.00,NNE,30,6.0,6.0,82,0.00,,,-99.99,,2013-02-25 15:21:00,
2013-02-25 09:32:00,30.0,25.0,-100.00,NE,45,4.0,6.0,81,0.00,,,-99.99,,2013-02-25 15:32:00,
2013-02-25 09:41:00,30.0,25.0,-100.00,NE,45,4.0,6.0,81,0.00,,,-99.99,,2013-02-25 15:41:00,
2013-02-25 09:51:00,31.0,26.0,-100.00,ENE,60,2.0,4.0,80,0.00,,,-99.99,,2013-02-25 15:51:00,
2013-02-25 10:02:00,31.0,26.0,-100.00,ENE,60,2.0,4.0,80,0.00,,,-99.99,,2013-02-25 16:02:00,
2013-02-25 10:11:00,31.0,26.0,-100.00,ENE,75,4.0,6.0,79,0.00,,,-99.99,,2013-02-25 16:11:00,
2013-02-25 10:21:00,31.0,26.0,-100.00,ENE,65,4.0,5.0,78,0.00,,,-99.99,,2013-02-25 16:21:00,
2013-02-25 10:32:00,32.0,26.0,-100.00,East,80,2.0,4.0,77,0.00,,,-99.99,,2013-02-25 16:32:00,
2013-02-25 10:42:00,33.0,26.0,-100.00,NE,55,3.0,4.0,76,0.00,,,-99.99,,2013-02-25 16:42:00,
2013-02-25 10:51:00,33.0,26.0,-100.00,ENE,75,4.0,5.0,75,0.00,,,-99.99,,2013-02-25 16:51:00,
2013-02-25 11:01:00,33.0,26.0,-100.00,ENE,75,4.0,5.0,75,0.00,,,-99.99,,2013-02-25 17:01:00,
2013-02-25 11:11:00,33.0,26.0,-100.00,ENE,75,4.0,5.0,75,0.00,,,-99.99,,2013-02-25 17:11:00,
2013-02-25 11:21:00,34.0,26.0,-100.00,NE,40,3.0,4.0,73,0.00,,,-99.99,,2013-02-25 17:21:00,
2013-02-25 11:31:00,35.0,26.0,-100.00,NNE,20,4.0,6.0,70,0.00,,,-99.99,,2013-02-25 17:31:00,
2013-02-25 11:41:00,35.0,26.0,-100.00,NNE,20,4.0,6.0,70,0.00,,,-99.99,,2013-02-25 17:41:00,
2013-02-25 11:52:00,35.0,26.0,-100.00,NNE,20,5.0,7.0,66,0.00,,,-99.99,,2013-02-25 17:52:00,
2013-02-25 12:01:00,35.0,26.0,-100.00,NNE,20,5.0,7.0,66,0.00,,,-99.99,,2013-02-25 18:01:00,
2013-02-25 12:12:00,36.0,26.0,-100.00,NNE,20,4.0,6.0,65,0.00,,,-99.99,,2013-02-25 18:12:00,
2013-02-25 12:21:00,36.0,25.0,-100.00,NE,40,4.0,6.0,65,0.00,,,-99.99,,2013-02-25 18:21:00,
2013-02-25 12:32:00,36.0,25.0,-100.00,NNE,20,4.0,6.0,63,0.00,,,-99.99,,2013-02-25 18:32:00,
2013-02-25 12:41:00,36.0,25.0,-100.00,NNE,20,4.0,6.0,63,0.00,,,-99.99,,2013-02-25 18:41:00,
2013-02-25 12:51:00,37.0,25.0,-100.00,ENE,60,6.0,8.0,60,0.00,,,-99.99,,2013-02-25 18:51:00,
2013-02-25 13:01:00,37.0,25.0,-100.00,ENE,60,6.0,8.0,60,0.00,,,-99.99,,2013-02-25 19:01:00,
2013-02-25 13:11:00,37.0,25.0,-100.00,NE,45,6.0,7.0,60,0.00,,,-99.99,,2013-02-25 19:11:00,
2013-02-25 13:21:00,37.0,25.0,-100.00,NE,50,6.0,8.0,60,0.00,,,-99.99,,2013-02-25 19:21:00,
2013-02-25 13:31:00,37.0,25.0,-100.00,NNE,25,6.0,9.0,60,0.00,,,-99.99,,2013-02-25 19:31:00,
2013-02-25 13:41:00,37.0,25.0,-100.00,NNE,25,6.0,9.0,60,0.00,,,-99.99,,2013-02-25 19:41:00,
2013-02-25 13:52:00,38.0,25.0,-100.00,ENE,60,6.0,9.0,60,0.00,,,-99.99,,2013-02-25 19:52:00,
2013-02-25 14:01:00,38.0,25.0,-100.00,ENE,60,6.0,9.0,60,0.00,,,-99.99,,2013-02-25 20:01:00,
2013-02-25 14:11:00,38.0,25.0,-100.00,NE,50,7.0,9.0,59,0.00,,,-99.99,,2013-02-25 20:11:00,
2013-02-25 14:21:00,38.0,25.0,-100.00,NE,45,6.0,9.0,59,0.00,,,-99.99,,2013-02-25 20:21:00,
2013-02-25 14:31:00,38.0,25.0,-100.00,NE,45,6.0,7.0,60,0.00,,,-99.99,,2013-02-25 20:31:00,
2013-02-25 14:41:00,38.0,25.0,-100.00,NE,45,6.0,7.0,60,0.00,,,-99.99,,2013-02-25 20:41:00,
2013-02-25 14:52:00,37.0,25.0,-100.00,NE,35,7.0,9.0,60,0.00,,,-99.99,,2013-02-25 20:52:00,
2013-02-25 15:01:00,37.0,25.0,-100.00,NE,35,7.0,9.0,60,0.00,,,-99.99,,2013-02-25 21:01:00,
2013-02-25 15:11:00,37.0,25.0,-100.00,NNE,30,6.0,9.0,60,0.00,,,-99.99,,2013-02-25 21:11:00,
2013-02-25 15:21:00,37.0,25.0,-100.00,NNE,30,6.0,9.0,60,0.00,,,-99.99,,2013-02-25 21:21:00,
2013-02-25 15:31:00,37.0,24.0,-100.00,NNE,25,7.0,9.0,59,0.00,,,-99.99,,2013-02-25 21:31:00,
2013-02-25 15:42:00,37.0,24.0,-100.00,NNE,25,7.0,9.0,59,0.00,,,-99.99,,2013-02-25 21:42:00,
2013-02-25 15:51:00,37.0,24.0,-100.00,NNE,30,7.0,9.0,59,0.00,,,-99.99,,2013-02-25 21:51:00,
2013-02-25 16:01:00,37.0,24.0,-100.00,NNE,30,7.0,9.0,59,0.00,,,-99.99,,2013-02-25 22:01:00,
2013-02-25 16:11:00,37.0,24.0,-100.00,NNE,25,7.0,9.0,59,0.00,,,-99.99,,2013-02-25 22:11:00,
2013-02-25 16:21:00,36.0,24.0,-100.00,NNE,25,9.0,11.0,59,0.00,,,-99.99,,2013-02-25 22:21:00,
2013-02-25 16:32:00,37.0,24.0,-100.00,NE,35,6.0,9.0,60,0.00,,,-99.99,,2013-02-25 22:32:00,
2013-02-25 16:42:00,37.0,24.0,-100.00,NE,35,6.0,9.0,60,0.00,,,-99.99,,2013-02-25 22:42:00,
2013-02-25 16:51:00,36.0,24.0,-100.00,NNE,25,6.0,8.0,61,0.00,,,-99.99,,2013-02-25 22:51:00,
2013-02-25 17:01:00,36.0,24.0,-100.00,NNE,25,6.0,8.0,61,0.00,,,-99.99,,2013-02-25 23:01:00,
2013-02-25 17:11:00,36.0,24.0,-100.00,NNE,30,7.0,9.0,61,0.00,,,-99.99,,2013-02-25 23:11:00,
2013-02-25 17:22:00,36.0,24.0,-100.00,NNE,30,7.0,9.0,61,0.00,,,-99.99,,2013-02-25 23:22:00,
2013-02-25 17:31:00,35.0,25.0,-100.00,NNE,25,6.0,9.0,64,0.00,,,-99.99,,2013-02-25 23:31:00,
2013-02-25 17:41:00,35.0,25.0,-100.00,NNE,25,6.0,9.0,64,0.00,,,-99.99,,2013-02-25 23:41:00,
2013-02-25 17:52:00,34.0,26.0,-100.00,NE,55,5.0,6.0,70,0.00,,,-99.99,,2013-02-25 23:52:00,
2013-02-25 18:01:00,34.0,26.0,-100.00,NE,55,5.0,6.0,70,0.00,,,-99.99,,2013-02-26 00:01:00,
2013-02-25 18:11:00,34.0,26.0,-100.00,NE,50,7.0,7.0,71,0.00,,,-99.99,,2013-02-26 00:11:00,
2013-02-25 18:22:00,34.0,26.0,-100.00,NE,45,7.0,9.0,72,0.00,,,-99.99,,2013-02-26 00:22:00,
2013-02-25 18:32:00,33.0,26.0,-100.00,NE,35,7.0,8.0,74,0.00,,,-99.99,,2013-02-26 00:32:00,
2013-02-25 18:41:00,33.0,26.0,-100.00,NE,40,7.0,9.0,75,0.00,,,-99.99,,2013-02-26 00:41:00,
2013-02-25 18:51:00,33.0,26.0,-100.00,NNE,25,7.0,11.0,77,0.00,,,-99.99,,2013-02-26 00:51:00,
2013-02-25 19:02:00,33.0,26.0,-100.00,NNE,25,7.0,11.0,77,0.00,,,-99.99,,2013-02-26 01:02:00,
2013-02-25 19:11:00,33.0,27.0,-100.00,NNE,20,7.0,11.0,78,0.00,,,-99.99,,2013-02-26 01:11:00,
2013-02-25 19:21:00,33.0,27.0,-100.00,NNE,25,7.0,9.0,78,0.00,,,-99.99,,2013-02-26 01:21:00,
2013-02-25 19:31:00,32.0,27.0,-100.00,NNE,25,6.0,8.0,79,0.00,,,-99.99,,2013-02-26 01:31:00,
2013-02-25 19:41:00,32.0,27.0,-100.00,NNE,25,6.0,8.0,79,0.00,,,-99.99,,2013-02-26 01:41:00,
2013-02-25 19:51:00,32.0,27.0,-100.00,NNE,25,8.0,11.0,80,0.00,,,-99.99,,2013-02-26 01:51:00,
2013-02-25 20:01:00,32.0,27.0,-100.00,NNE,25,8.0,11.0,80,0.00,,,-99.99,,2013-02-26 02:01:00,
2013-02-25 20:11:00,32.0,27.0,-100.00,NNE,20,8.0,11.0,81,0.00,,,-99.99,,2013-02-26 02:11:00,
2013-02-25 20:21:00,32.0,27.0,-100.00,NNE,25,9.0,10.0,81,0.00,,,-99.99,,2013-02-26 02:21:00,
2013-02-25 20:32:00,31.0,27.0,-100.00,NNE,30,8.0,11.0,81,0.00,,,-99.99,,2013-02-26 02:32:00,
2013-02-25 20:41:00,31.0,27.0,-100.00,NNE,30,8.0,11.0,81,0.00,,,-99.99,,2013-02-26 02:41:00,
2013-02-25 20:52:00,31.0,26.0,-100.00,NE,35,7.0,10.0,81,0.00,,,-99.99,,2013-02-26 02:52:00,
2013-02-25 21:02:00,31.0,26.0,-100.00,NE,35,7.0,10.0,81,0.00,,,-99.99,,2013-02-26 03:02:00,
2013-02-25 21:11:00,32.0,27.0,-100.00,NE,35,9.0,11.0,81,0.00,,,-99.99,,2013-02-26 03:11:00,
2013-02-25 21:21:00,32.0,27.0,-100.00,NNE,15,10.0,12.0,81,0.00,,,-99.99,,2013-02-26 03:21:00,
2013-02-25 21:32:00,32.0,26.0,-100.00,NE,35,8.0,12.0,80,0.00,,,-99.99,,2013-02-26 03:32:00,
2013-02-25 21:42:00,32.0,26.0,-100.00,NE,35,8.0,12.0,80,0.00,,,-99.99,,2013-02-26 03:42:00,
2013-02-25 21:52:00,31.0,26.0,-100.00,NNE,30,10.0,12.0,80,0.00,,,-99.99,,2013-02-26 03:52:00,
2013-02-25 22:01:00,31.0,26.0,-100.00,NNE,30,10.0,12.0,80,0.00,,,-99.99,,2013-02-26 04:01:00,
2013-02-25 22:11:00,32.0,26.0,-100.00,NE,35,9.0,12.0,80,0.00,,,-99.99,,2013-02-26 04:11:00,
2013-02-25 22:21:00,32.0,26.0,-100.00,NE,40,9.0,12.0,80,0.00,,,-99.99,,2013-02-26 04:21:00,
2013-02-25 22:32:00,32.0,27.0,-100.00,NNE,30,10.0,12.0,80,0.00,,,-99.99,,2013-02-26 04:32:00,
2013-02-25 22:42:00,32.0,27.0,-100.00,NNE,30,10.0,12.0,80,0.00,,,-99.99,,2013-02-26 04:42:00,
2013-02-25 22:51:00,32.0,26.0,-100.00,NE,40,9.0,15.0,80,0.00,,,-99.99,,2013-02-26 04:51:00,
2013-02-25 23:01:00,32.0,26.0,-100.00,NE,40,9.0,15.0,80,0.00,,,-99.99,,2013-02-26 05:01:00,
2013-02-25 23:11:00,31.0,26.0,-100.00,NNE,30,10.0,13.0,80,0.00,,,-99.99,,2013-02-26 05:11:00,
2013-02-25 23:21:00,31.0,26.0,-100.00,NNE,30,10.0,13.0,80,0.00,,,-99.99,,2013-02-26 05:21:00,
2013-02-25 23:31:00,32.0,26.0,-100.00,NE,40,11.0,15.0,80,0.00,,,-99.99,,2013-02-26 05:31:00,
2013-02-25 23:42:00,32.0,26.0,-100.00,NE,40,11.0,15.0,80,0.00,,,-99.99,,2013-02-26 05:42:00,
2013-02-25 23:52:00,32.0,26.0,-100.00,NE,35,9.0,14.0,80,0.00,,,-99.99,,2013-02-26 05:52:00,